This is the latest recevied weather packets stored in our database for station/object M0TJX-1. If no packets are shown the sender has not sent any weather packets the latest 10 day(s).
| Time | Temp. | Humidity | Pressure | Rain* | Wind** | Luminosity | Snow |
|---|---|---|---|---|---|---|---|
| 1777496305 | 12.22° C | 56% | 1022.1 hPa | 0 mm | - | - | - |
| 1777495405 | 12.22° C | 55% | 1022.1 hPa | 0 mm | - | - | - |
| 1777494505 | 12.78° C | 53% | 1022 hPa | 0 mm | - | - | - |
| 1777493605 | 12.78° C | 52% | 1021.9 hPa | 0 mm | - | - | - |
| 1777492705 | 13.33° C | 51% | 1021.9 hPa | 0 mm | - | - | - |
| 1777491805 | 13.33° C | 49% | 1021.9 hPa | 0 mm | - | - | - |
| 1777490905 | 13.89° C | 47% | 1021.6 hPa | 0 mm | - | - | - |
| 1777490005 | 14.44° C | 45% | 1021.5 hPa | 0 mm | - | - | - |
| 1777489105 | 15° C | 44% | 1021.2 hPa | 0 mm | - | - | - |
| 1777488205 | 15.56° C | 42% | 1021.2 hPa | 0 mm | - | - | - |
| 1777487305 | 16.11° C | 40% | 1021.1 hPa | 0 mm | - | - | - |
| 1777486405 | 16.67° C | 38% | 1021.2 hPa | 0 mm | - | - | - |
| 1777485505 | 16.67° C | 37% | 1020.8 hPa | 0 mm | - | - | - |
| 1777484605 | 17.22° C | 36% | 1020.9 hPa | 0 mm | - | - | - |
| 1777483705 | 17.22° C | 36% | 1020.9 hPa | 0 mm | - | - | - |
| 1777482805 | 17.78° C | 37% | 1020.8 hPa | 0 mm | - | - | - |
| 1777481905 | 18.33° C | 37% | 1021 hPa | 0 mm | - | - | - |
| 1777481005 | 18.89° C | 37% | 1021.1 hPa | 0 mm | - | - | - |
| 1777480105 | 18.89° C | 36% | 1021 hPa | 0 mm | - | - | - |
| 1777479205 | 19.44° C | 34% | 1021 hPa | 0 mm | - | - | - |
| 1777478305 | 19.44° C | 35% | 1021.1 hPa | 0 mm | - | - | - |
| 1777477405 | 19.44° C | 36% | 1021 hPa | 0 mm | - | - | - |
| 1777476505 | 18.89° C | 35% | 1021.3 hPa | 0 mm | - | - | - |
| 1777475605 | 18.89° C | 37% | 1021.4 hPa | 0 mm | - | - | - |
| 1777474705 | 18.89° C | 39% | 1021.3 hPa | 0 mm | - | - | - |
* Rain latest hour (hover to see other rain measurements)
** Current wind speed in m/s (hover to see current wind gust speed)